Showing default

GORIZONT 19, 20263

Orbit data source: Space-Track

GORIZONT 19, 20263 is a payload satellite owned by MSvyaz (CIS) in GEO that was launched on Thu, 28 Sep 1989 UTC via a PROTON-K/DM-2 launch vehicle from the Tyuratam Missile And Space Complex (TTMTR). Payload-class satellites include a variety of spacecraft equipped with specific instruments for various scientific and technological missions. These include communications satellites like Starlink; space stations such as the ISS; scientific satellites like the Hubble; Earth observation satellites from companies like Planet Labs, Umbra, and HawkEye 360; GPS; miniature CubeSats for education and research; and military/defense satellites.

Not visible in the next 10 days
Identifier
20263, 1989-081A
Orbit
GEO
Last TLE update
9 hours ago
Origin
Manufacturer
NPO PM
Mission
Non-operational Civil Communications
Bus & Motor
GORIZONT, Unknown motor
Mass
2,120 kg wet, ~2,000 kg dry
Launch date (UTC)
1989-09-28 (36 years ago)
Launch vehicle
PROTON-K/DM-2
Launch site
Tyuratam Missile And Space Complex (TTMTR)
Object type
Payload
Rocket body
Debris
Shape & HBR
Cyl + 2 Pan, 9.5 m
Radar Cross Section
23.870 m², Large (>1 m²)

Expand to show TLE details & history

TLE from 9 hours ago
0 GORIZONT 19
1 20263U 89081A   25191.64372314 -.00000319  00000-0  00000-0 0  9991
2 20263  12.4522 335.8059 0005152 254.8835  30.4147  1.00333121 43912
Epoch: 2025-07-10T15:26Z
TLE epoch observation values (Epoch: 2025-07-10T15:26:57.679Z)
Latitude
-12.03001°
Longitude
100.92693°
Altitude
35,752.658 km
Speed
3.077 km/s
True Right ascension
17h 25m 53s
True Declination
-12° 01' 05"
Sunlit
Object was in daylight at epoch
Visualization orbit readout
Latitude
10.63475°
Longitude
-126.6383°
Altitude
35,789.099 km
Speed
3.074 km/s
Apparent Right ascension
02h 05m 14s
Apparent Declination
4° 36' 37"
Sunlit
Object is in daylight
Visualization observer readout
Local Sidereal Time
12:35:02
Azimuth
329.628° NNW
Elevation
-40.879°
Doppler factor
1
Orbital elements
Apogee altitude
35,792.122 km
Perigee altitude
35,748.692 km
Semi-major axis
42,148.544 km
Eccentricity
0.00052
Inclination
12.4522°
RAAN
335.8059°
Arg. of periapsis
254.8835°
True anomaly
Unknown
Mean anomaly
30.4147°
Eccentric anomaly
Unknown
Mean motion
0.25082 °/min
Orbital period
1,435.27 mins
BSTAR
0
Loading historical data...
20263 neighbors
Loading maneuver chart data...
Loading SW <> Apogee altitude chart data...
Loading historical data...
Loading historical data...
Loading historical data...
Loading historical data...
Loading historical data...
Loading historical data...
Loading historical data...

GORIZONT 19 Visibility

Observer location: undefined°, undefined°

GORIZONT 19 is likely not visible in the next few days
Span
Click to sort rows by Start time (UTC) header in descending order
Start Az.
Max El. time (UTC)
Max El. Az.
Max El.
End time (UTC)
End Az.
|